Location: site
(53.0000°N, 23.0500°E)
Time: 22:33:36
(UTC+01:00)

SAOCOM 1-A - Pass Details

Date: 21 January 2020
Orbit: 621 x 623 km, 97.9° (Epoch: 24 February)

Event Time Altitude Azimuth Distance (km) Brightness Sun altitude
Exits shadow 16:49:07 - 34° (NE) 2,310 ? -8.6°
Reaches altitude 10° 16:50:06 10° 42° (NE) 2,004 ? -8.8°
Maximum altitude 16:53:21 20° 91° (E) 1,440 ? -9.2°
Drops below altitude 10° 16:56:35 10° 139° (SE) 1,991 ? -9.7°
Sets 16:59:15 0° 156° (SSE) 2,891 ? -10.0°
